Time,TemperatureF,DewpointF,PressureIn,WindDirection,WindDirectionDegrees,WindSpeedMPH,WindSpeedGustMPH,Humidity,HourlyPrecipIn,Conditions,Clouds,dailyrainin,SoftwareType,DateUTC
2013-06-10 00:03:00,52.4,41.0,30.15,East,82,1.0,5.0,65,0.00,,,0.00,Wunderground v.1.15,2013-06-10 08:03:00,
2013-06-10 00:09:00,52.3,40.9,30.15,East,82,1.0,5.0,65,0.00,,,0.00,Wunderground v.1.15,2013-06-10 08:09:00,
2013-06-10 00:14:00,51.9,40.9,30.15,ENE,72,0.0,5.0,66,0.00,,,0.00,Wunderground v.1.15,2013-06-10 08:14:00,
2013-06-10 00:20:00,51.6,41.0,30.15,ENE,72,0.0,5.0,67,0.00,,,0.00,Wunderground v.1.15,2013-06-10 08:20:00,
2013-06-10 00:26:00,51.4,41.2,30.15,ENE,72,0.0,5.0,68,0.00,,,0.00,Wunderground v.1.15,2013-06-10 08:26:00,
2013-06-10 00:31:00,51.8,40.8,30.15,SE,141,1.0,5.0,66,0.00,,,0.00,Wunderground v.1.15,2013-06-10 08:31:00,
2013-06-10 00:37:00,52.4,41.0,30.15,ESE,108,2.0,5.0,65,0.00,,,0.00,Wunderground v.1.15,2013-06-10 08:37:00,
2013-06-10 00:43:00,52.7,40.9,30.15,ESE,117,2.0,5.0,64,0.00,,,0.00,Wunderground v.1.15,2013-06-10 08:43:00,
2013-06-10 00:50:00,52.4,41.0,30.15,ESE,108,2.0,5.0,65,0.00,,,0.00,Wunderground v.1.15,2013-06-10 08:50:00,
2013-06-10 00:56:00,52.1,40.7,30.15,ESE,111,2.0,5.0,65,0.00,,,0.00,Wunderground v.1.15,2013-06-10 08:56:00,
2013-06-10 01:01:00,52.2,40.8,30.15,SE,145,2.0,5.0,65,0.00,,,0.00,Wunderground v.1.15,2013-06-10 09:01:00,
2013-06-10 01:06:00,52.5,41.1,30.15,SE,144,3.0,5.0,65,0.00,,,0.00,Wunderground v.1.15,2013-06-10 09:06:00,
2013-06-10 01:12:00,53.0,41.1,30.15,SE,127,4.0,5.0,64,0.00,,,0.00,Wunderground v.1.15,2013-06-10 09:12:00,
2013-06-10 01:18:00,53.2,40.9,30.15,SSE,149,5.0,6.0,63,0.00,,,0.00,Wunderground v.1.15,2013-06-10 09:18:00,
2013-06-10 01:24:00,53.0,40.7,30.15,SSE,153,5.0,5.0,63,0.00,,,0.00,Wunderground v.1.15,2013-06-10 09:24:00,
2013-06-10 01:29:00,52.9,41.0,30.15,SSE,153,5.0,6.0,64,0.00,,,0.00,Wunderground v.1.15,2013-06-10 09:29:00,
2013-06-10 01:35:00,52.8,41.0,30.15,SSE,152,5.0,6.0,64,0.00,,,0.00,Wunderground v.1.15,2013-06-10 09:35:00,
2013-06-10 01:41:00,52.7,40.9,30.15,SSE,150,5.0,5.0,64,0.00,,,0.00,Wunderground v.1.15,2013-06-10 09:41:00,
2013-06-10 01:47:00,52.9,40.6,30.15,SE,145,5.0,5.0,63,0.00,,,0.00,Wunderground v.1.15,2013-06-10 09:47:00,
2013-06-10 01:53:00,53.2,40.9,30.15,SSE,153,5.0,5.0,63,0.00,,,0.00,Wunderground v.1.15,2013-06-10 09:53:00,
2013-06-10 01:58:00,53.2,40.9,30.15,SSE,153,4.0,5.0,63,0.00,,,0.00,Wunderground v.1.15,2013-06-10 09:58:00,
2013-06-10 02:04:00,53.1,40.8,30.15,SSE,156,4.0,5.0,63,0.00,,,0.00,Wunderground v.1.15,2013-06-10 10:04:00,
2013-06-10 02:09:00,53.0,40.7,30.15,SSE,152,4.0,5.0,63,0.00,,,0.00,Wunderground v.1.15,2013-06-10 10:09:00,
2013-06-10 02:15:00,53.2,40.9,30.15,SSE,148,4.0,5.0,63,0.00,,,0.00,Wunderground v.1.15,2013-06-10 10:15:00,
2013-06-10 02:20:00,53.2,40.9,30.15,SSE,147,4.0,6.0,63,0.00,,,0.00,Wunderground v.1.15,2013-06-10 10:20:00,
2013-06-10 02:26:00,53.5,40.8,30.15,SE,139,5.0,6.0,62,0.00,,,0.00,Wunderground v.1.15,2013-06-10 10:26:00,
2013-06-10 02:33:00,53.2,40.9,30.15,SE,136,4.0,5.0,63,0.00,,,0.00,Wunderground v.1.15,2013-06-10 10:33:00,
2013-06-10 02:38:00,53.1,40.8,30.15,SE,133,4.0,5.0,63,0.00,,,0.00,Wunderground v.1.15,2013-06-10 10:38:00,
2013-06-10 02:44:00,52.6,40.4,30.15,ESE,110,3.0,5.0,63,0.00,,,0.00,Wunderground v.1.15,2013-06-10 10:44:00,
2013-06-10 02:50:00,51.8,40.4,30.15,ENE,70,1.0,5.0,65,0.00,,,0.00,Wunderground v.1.15,2013-06-10 10:50:00,
2013-06-10 02:56:00,51.6,40.6,30.15,ENE,70,0.0,5.0,66,0.00,,,0.00,Wunderground v.1.15,2013-06-10 10:56:00,
2013-06-10 03:01:00,51.5,40.5,30.15,ENE,71,1.0,5.0,66,0.00,,,0.00,Wunderground v.1.15,2013-06-10 11:01:00,
2013-06-10 03:07:00,51.3,41.5,30.15,ENE,71,0.0,5.0,69,0.00,,,0.00,Wunderground v.1.15,2013-06-10 11:07:00,
2013-06-10 03:13:00,50.8,41.4,30.15,ENE,70,0.0,5.0,70,0.00,,,0.00,Wunderground v.1.15,2013-06-10 11:13:00,
2013-06-10 03:18:00,50.3,41.6,30.15,ENE,71,0.0,5.0,72,0.00,,,0.00,Wunderground v.1.15,2013-06-10 11:18:00,
2013-06-10 03:24:00,49.7,41.0,30.15,ENE,71,0.0,5.0,72,0.00,,,0.00,Wunderground v.1.15,2013-06-10 11:24:00,
2013-06-10 03:30:00,49.5,41.2,30.15,ENE,71,0.0,5.0,73,0.00,,,0.00,Wunderground v.1.15,2013-06-10 11:30:00,
2013-06-10 03:37:00,49.4,41.5,30.15,ENE,70,0.0,5.0,74,0.00,,,0.00,Wunderground v.1.15,2013-06-10 11:37:00,
2013-06-10 03:42:00,49.0,40.7,30.15,ENE,71,0.0,5.0,73,0.00,,,0.00,Wunderground v.1.15,2013-06-10 11:42:00,
2013-06-10 03:48:00,48.7,41.1,30.15,ENE,70,0.0,5.0,75,0.00,,,0.00,Wunderground v.1.15,2013-06-10 11:48:00,
2013-06-10 03:53:00,49.7,41.0,30.15,ENE,72,0.0,5.0,72,0.00,,,0.00,Wunderground v.1.15,2013-06-10 11:53:00,
2013-06-10 03:59:00,50.4,41.0,30.15,ENE,76,1.0,5.0,70,0.00,,,0.00,Wunderground v.1.15,2013-06-10 11:59:00,
2013-06-10 04:04:00,51.1,40.9,30.15,East,82,2.0,5.0,68,0.00,,,0.00,Wunderground v.1.15,2013-06-10 12:04:00,
2013-06-10 04:09:00,51.5,40.9,30.15,East,101,2.0,5.0,67,0.00,,,0.00,Wunderground v.1.15,2013-06-10 12:09:00,
2013-06-10 04:15:00,51.8,40.8,30.15,East,100,2.0,5.0,66,0.00,,,0.00,Wunderground v.1.15,2013-06-10 12:15:00,
2013-06-10 04:20:00,51.9,40.9,30.15,East,101,2.0,5.0,66,0.00,,,0.00,Wunderground v.1.15,2013-06-10 12:20:00,
2013-06-10 04:27:00,52.0,41.0,30.15,East,100,2.0,5.0,66,0.00,,,0.00,Wunderground v.1.15,2013-06-10 12:27:00,
2013-06-10 04:32:00,51.6,40.6,30.15,East,100,2.0,5.0,66,0.00,,,0.00,Wunderground v.1.15,2013-06-10 12:32:00,
2013-06-10 04:38:00,51.6,40.6,30.15,SE,124,2.0,5.0,66,0.00,,,0.00,Wunderground v.1.15,2013-06-10 12:38:00,
2013-06-10 04:44:00,51.9,40.9,30.15,SE,129,3.0,5.0,66,0.00,,,0.00,Wunderground v.1.15,2013-06-10 12:44:00,
2013-06-10 04:49:00,52.1,41.1,30.15,SE,131,3.0,5.0,66,0.00,,,0.00,Wunderground v.1.15,2013-06-10 12:49:00,
2013-06-10 04:55:00,52.1,40.7,30.15,SSE,148,3.0,5.0,65,0.00,,,0.00,Wunderground v.1.15,2013-06-10 12:55:00,
2013-06-10 05:01:00,52.2,40.8,30.15,SE,132,3.0,3.0,65,0.00,,,0.00,Wunderground v.1.15,2013-06-10 13:01:00,
2013-06-10 05:07:00,52.2,40.8,30.15,SE,125,3.0,3.0,65,0.00,,,0.00,Wunderground v.1.15,2013-06-10 13:07:00,
2013-06-10 05:12:00,52.3,40.9,30.15,SE,125,3.0,3.0,65,0.00,,,0.00,Wunderground v.1.15,2013-06-10 13:12:00,
2013-06-10 05:18:00,52.7,41.3,30.15,ESE,121,3.0,3.0,65,0.00,,,0.00,Wunderground v.1.15,2013-06-10 13:18:00,
2013-06-10 05:24:00,52.7,40.9,30.15,ESE,122,3.0,4.0,64,0.00,,,0.00,Wunderground v.1.15,2013-06-10 13:24:00,
2013-06-10 05:29:00,52.8,41.0,30.15,ESE,115,4.0,4.0,64,0.00,,,0.00,Wunderground v.1.15,2013-06-10 13:29:00,
2013-06-10 05:35:00,52.7,40.9,30.15,ESE,108,3.0,4.0,64,0.00,,,0.00,Wunderground v.1.15,2013-06-10 13:35:00,
2013-06-10 05:40:00,51.8,40.4,30.15,ESE,107,3.0,3.0,65,0.00,,,0.00,Wunderground v.1.15,2013-06-10 13:40:00,
2013-06-10 05:46:00,51.4,40.4,30.15,ESE,103,2.0,3.0,66,0.00,,,0.00,Wunderground v.1.15,2013-06-10 13:46:00,
2013-06-10 05:51:00,52.0,41.0,30.15,ESE,102,1.0,2.0,66,0.00,,,0.00,Wunderground v.1.15,2013-06-10 13:51:00,
2013-06-10 05:57:00,52.4,41.0,30.15,East,100,1.0,2.0,65,0.00,,,0.00,Wunderground v.1.15,2013-06-10 13:57:00,
2013-06-10 06:02:00,52.3,40.9,30.15,East,101,2.0,4.0,65,0.00,,,0.00,Wunderground v.1.15,2013-06-10 14:02:00,
2013-06-10 06:08:00,52.1,40.7,30.15,East,101,2.0,4.0,65,0.00,,,0.00,Wunderground v.1.15,2013-06-10 14:08:00,
2013-06-10 06:13:00,51.5,40.5,30.15,East,101,3.0,4.0,66,0.00,,,0.00,Wunderground v.1.15,2013-06-10 14:13:00,
2013-06-10 06:19:00,51.2,40.6,30.15,East,101,3.0,3.0,67,0.00,,,0.00,Wunderground v.1.15,2013-06-10 14:19:00,
2013-06-10 06:25:00,51.0,40.4,30.15,East,101,3.0,4.0,67,0.00,,,0.00,Wunderground v.1.15,2013-06-10 14:25:00,
2013-06-10 06:31:00,51.0,40.4,30.15,ESE,120,3.0,4.0,67,0.00,,,0.00,Wunderground v.1.15,2013-06-10 14:31:00,
2013-06-10 06:36:00,51.3,40.7,30.15,ESE,110,3.0,4.0,67,0.00,,,0.00,Wunderground v.1.15,2013-06-10 14:36:00,
2013-06-10 06:42:00,51.5,40.9,30.15,ENE,73,2.0,4.0,67,0.00,,,0.00,Wunderground v.1.15,2013-06-10 14:42:00,
2013-06-10 06:48:00,51.4,40.8,30.15,East,79,2.0,4.0,67,0.00,,,0.00,Wunderground v.1.15,2013-06-10 14:48:00,
2013-06-10 06:53:00,51.5,42.0,30.15,ENE,70,1.0,4.0,70,0.00,,,0.00,Wunderground v.1.15,2013-06-10 14:53:00,
2013-06-10 06:58:00,51.6,42.1,30.15,East,90,1.0,4.0,70,0.00,,,0.00,Wunderground v.1.15,2013-06-10 14:58:00,
2013-06-10 07:04:00,51.3,41.8,30.15,East,82,1.0,4.0,70,0.00,,,0.00,Wunderground v.1.15,2013-06-10 15:04:00,
2013-06-10 07:09:00,51.3,42.2,30.15,ENE,75,1.0,4.0,71,0.00,,,0.00,Wunderground v.1.15,2013-06-10 15:09:00,
2013-06-10 07:15:00,51.6,42.5,30.15,NE,44,1.0,4.0,71,0.00,,,0.00,Wunderground v.1.15,2013-06-10 15:15:00,
2013-06-10 07:21:00,51.6,42.5,30.15,NE,49,1.0,4.0,71,0.00,,,0.00,Wunderground v.1.15,2013-06-10 15:21:00,
2013-06-10 07:27:00,51.5,42.4,30.15,NE,43,2.0,4.0,71,0.00,,,0.00,Wunderground v.1.15,2013-06-10 15:27:00,
2013-06-10 07:32:00,51.2,42.8,30.15,NE,56,2.0,4.0,73,0.00,,,0.00,Wunderground v.1.15,2013-06-10 15:32:00,
2013-06-10 07:38:00,51.1,43.1,30.15,ENE,68,2.0,4.0,74,0.00,,,0.00,Wunderground v.1.15,2013-06-10 15:38:00,
2013-06-10 07:44:00,51.4,43.0,30.15,NE,49,1.0,4.0,73,0.00,,,0.00,Wunderground v.1.15,2013-06-10 15:44:00,
2013-06-10 07:50:00,51.3,42.9,30.15,NE,47,2.0,2.0,73,0.00,,,0.00,Wunderground v.1.15,2013-06-10 15:50:00,
2013-06-10 07:55:00,51.7,43.3,30.15,NE,49,2.0,4.0,73,0.00,,,0.00,Wunderground v.1.15,2013-06-10 15:55:00,
2013-06-10 08:01:00,51.9,43.2,30.15,ENE,67,2.0,4.0,72,0.00,,,0.00,Wunderground v.1.15,2013-06-10 16:01:00,
2013-06-10 08:07:00,52.1,43.3,30.15,ENE,77,1.0,4.0,72,0.00,,,0.00,Wunderground v.1.15,2013-06-10 16:07:00,
2013-06-10 08:13:00,52.8,44.4,30.15,NE,43,1.0,4.0,73,0.00,,,0.00,Wunderground v.1.15,2013-06-10 16:13:00,
2013-06-10 08:18:00,53.6,44.0,30.15,NE,49,2.0,4.0,70,0.00,,,0.00,Wunderground v.1.15,2013-06-10 16:18:00,
2013-06-10 08:24:00,53.7,44.1,30.15,NNE,25,3.0,4.0,70,0.00,,,0.00,Wunderground v.1.15,2013-06-10 16:24:00,
2013-06-10 08:29:00,53.7,44.5,30.15,NE,39,3.0,4.0,71,0.00,,,0.00,Wunderground v.1.15,2013-06-10 16:29:00,
2013-06-10 08:35:00,53.5,45.1,30.15,NNE,30,3.0,4.0,73,0.00,,,0.00,Wunderground v.1.15,2013-06-10 16:35:00,
2013-06-10 08:41:00,53.7,45.2,30.15,NNE,22,2.0,4.0,73,0.00,,,0.00,Wunderground v.1.15,2013-06-10 16:41:00,
2013-06-10 08:46:00,53.7,44.9,30.15,North,352,2.0,4.0,72,0.00,,,0.00,Wunderground v.1.15,2013-06-10 16:46:00,
2013-06-10 08:51:00,53.7,44.9,30.15,NE,44,2.0,4.0,72,0.00,,,0.00,Wunderground v.1.15,2013-06-10 16:51:00,
2013-06-10 08:57:00,53.7,44.9,30.15,NE,44,3.0,4.0,72,0.00,,,0.00,Wunderground v.1.15,2013-06-10 16:57:00,
2013-06-10 09:03:00,53.7,44.5,30.15,ENE,62,3.0,4.0,71,0.00,,,0.00,Wunderground v.1.15,2013-06-10 17:03:00,
2013-06-10 09:08:00,53.8,45.0,30.15,NNE,30,3.0,5.0,72,0.00,,,0.00,Wunderground v.1.15,2013-06-10 17:08:00,
2013-06-10 09:14:00,53.9,45.4,30.15,NE,37,4.0,5.0,73,0.00,,,0.00,Wunderground v.1.15,2013-06-10 17:14:00,
2013-06-10 09:19:00,53.7,45.2,30.15,NNE,22,4.0,4.0,73,0.00,,,0.00,Wunderground v.1.15,2013-06-10 17:19:00,
2013-06-10 09:25:00,53.5,44.7,30.15,NNE,25,4.0,5.0,72,0.00,,,0.00,Wunderground v.1.15,2013-06-10 17:25:00,
2013-06-10 09:31:00,53.5,44.7,30.15,NE,40,3.0,5.0,72,0.00,,,0.00,Wunderground v.1.15,2013-06-10 17:31:00,
2013-06-10 09:38:00,53.8,45.0,30.15,NNE,25,3.0,5.0,72,0.00,,,0.00,Wunderground v.1.15,2013-06-10 17:38:00,
2013-06-10 09:44:00,53.9,44.7,30.15,NNE,30,3.0,4.0,71,0.00,,,0.00,Wunderground v.1.15,2013-06-10 17:44:00,
2013-06-10 09:49:00,53.9,45.1,30.15,NE,37,3.0,3.0,72,0.00,,,0.00,Wunderground v.1.15,2013-06-10 17:49:00,
2013-06-10 09:54:00,54.3,45.1,30.15,NNE,25,3.0,5.0,71,0.00,,,0.00,Wunderground v.1.15,2013-06-10 17:54:00,
2013-06-10 10:00:00,54.3,45.1,30.15,NE,45,3.0,4.0,71,0.00,,,0.00,Wunderground v.1.15,2013-06-10 18:00:00,
2013-06-10 10:06:00,54.5,45.3,30.15,NNE,20,3.0,5.0,71,0.00,,,0.00,Wunderground v.1.15,2013-06-10 18:06:00,
2013-06-10 10:12:00,54.4,45.6,30.15,NNE,27,3.0,4.0,72,0.00,,,0.00,Wunderground v.1.15,2013-06-10 18:12:00,
2013-06-10 10:18:00,54.5,45.7,30.16,North,354,3.0,5.0,72,0.00,,,0.00,Wunderground v.1.15,2013-06-10 18:18:00,
2013-06-10 10:23:00,54.6,46.1,30.15,NE,40,3.0,4.0,73,0.00,,,0.00,Wunderground v.1.15,2013-06-10 18:23:00,
2013-06-10 10:29:00,54.9,45.7,30.15,NNE,23,3.0,4.0,71,0.00,,,0.00,Wunderground v.1.15,2013-06-10 18:29:00,
2013-06-10 10:35:00,55.1,45.9,30.15,NNE,32,3.0,4.0,71,0.00,,,0.00,Wunderground v.1.15,2013-06-10 18:35:00,
2013-06-10 10:40:00,55.5,45.9,30.15,NE,39,4.0,6.0,70,0.00,,,0.00,Wunderground v.1.15,2013-06-10 18:40:00,
2013-06-10 10:46:00,55.5,45.5,30.16,NNE,33,4.0,6.0,69,0.00,,,0.00,Wunderground v.1.15,2013-06-10 18:46:00,
2013-06-10 10:51:00,55.3,45.7,30.16,NNE,28,5.0,5.0,70,0.00,,,0.00,Wunderground v.1.15,2013-06-10 18:51:00,
2013-06-10 10:57:00,55.2,45.6,30.15,NNE,16,4.0,6.0,70,0.00,,,0.00,Wunderground v.1.15,2013-06-10 18:57:00,
2013-06-10 11:03:00,55.3,45.3,30.15,NNE,26,4.0,6.0,69,0.00,,,0.00,Wunderground v.1.15,2013-06-10 19:03:00,
2013-06-10 11:08:00,55.7,45.3,30.15,North,8,4.0,7.0,68,0.00,,,0.00,Wunderground v.1.15,2013-06-10 19:08:00,
2013-06-10 11:13:00,55.9,45.9,30.15,NNE,27,5.0,8.0,69,0.00,,,0.00,Wunderground v.1.15,2013-06-10 19:13:00,
2013-06-10 11:19:00,55.7,46.1,30.15,NNE,13,6.0,6.0,70,0.00,,,0.00,Wunderground v.1.15,2013-06-10 19:19:00,
2013-06-10 11:25:00,55.7,45.3,30.15,NNE,22,6.0,7.0,68,0.00,,,0.00,Wunderground v.1.15,2013-06-10 19:25:00,
2013-06-10 11:31:00,55.8,45.0,30.15,North,9,6.0,7.0,67,0.00,,,0.00,Wunderground v.1.15,2013-06-10 19:31:00,
2013-06-10 11:37:00,55.8,45.0,30.15,NNE,20,6.0,9.0,67,0.00,,,0.00,Wunderground v.1.15,2013-06-10 19:37:00,
2013-06-10 11:42:00,55.8,44.2,30.15,NE,39,7.0,8.0,65,0.00,,,0.00,Wunderground v.1.15,2013-06-10 19:42:00,
2013-06-10 11:48:00,56.0,44.0,30.15,ENE,69,6.0,8.0,64,0.00,,,0.00,Wunderground v.1.15,2013-06-10 19:48:00,
2013-06-10 11:54:00,56.4,44.0,30.15,NNE,18,5.0,7.0,63,0.00,,,0.00,Wunderground v.1.15,2013-06-10 19:54:00,
2013-06-10 12:00:00,56.9,44.4,30.15,NNE,19,4.0,5.0,63,0.00,,,0.00,Wunderground v.1.15,2013-06-10 20:00:00,
2013-06-10 12:06:00,57.2,43.9,30.15,ENE,57,4.0,6.0,61,0.00,,,0.00,Wunderground v.1.15,2013-06-10 20:06:00,
2013-06-10 12:11:00,57.6,44.7,30.15,NNE,16,4.0,8.0,62,0.00,,,0.00,Wunderground v.1.15,2013-06-10 20:11:00,
2013-06-10 12:16:00,57.4,44.5,30.15,North,6,5.0,9.0,62,0.00,,,0.00,Wunderground v.1.15,2013-06-10 20:16:00,
2013-06-10 12:22:00,57.4,44.1,30.15,NNE,32,5.0,6.0,61,0.00,,,0.00,Wunderground v.1.15,2013-06-10 20:22:00,
2013-06-10 12:27:00,57.6,43.8,30.15,ENE,73,5.0,7.0,60,0.00,,,0.00,Wunderground v.1.15,2013-06-10 20:27:00,
2013-06-10 12:33:00,57.9,44.5,30.15,NNE,27,5.0,7.0,61,0.00,,,0.00,Wunderground v.1.15,2013-06-10 20:33:00,
2013-06-10 12:39:00,58.0,44.2,30.15,NNE,29,5.0,7.0,60,0.00,,,0.00,Wunderground v.1.15,2013-06-10 20:39:00,
2013-06-10 12:44:00,58.0,44.2,30.15,NE,37,5.0,7.0,60,0.00,,,0.00,Wunderground v.1.15,2013-06-10 20:44:00,
2013-06-10 12:50:00,58.2,44.4,30.15,ENE,76,6.0,6.0,60,0.00,,,0.00,Wunderground v.1.15,2013-06-10 20:50:00,
2013-06-10 12:55:00,58.9,45.0,30.15,NE,37,4.0,6.0,60,0.00,,,0.00,Wunderground v.1.15,2013-06-10 20:55:00,
2013-06-10 13:01:00,59.0,44.2,30.14,NNE,32,5.0,8.0,58,0.00,,,0.00,Wunderground v.1.15,2013-06-10 21:01:00,
2013-06-10 13:06:00,58.4,44.1,30.14,NNE,32,7.0,8.0,59,0.00,,,0.00,Wunderground v.1.15,2013-06-10 21:06:00,
2013-06-10 13:11:00,58.4,44.6,30.14,NNE,18,7.0,8.0,60,0.00,,,0.00,Wunderground v.1.15,2013-06-10 21:11:00,
2013-06-10 13:16:00,58.3,44.0,30.14,NE,53,7.0,12.0,59,0.00,,,0.00,Wunderground v.1.15,2013-06-10 21:16:00,
2013-06-10 13:22:00,58.0,43.7,30.14,NE,40,8.0,10.0,59,0.00,,,0.00,Wunderground v.1.15,2013-06-10 21:22:00,
2013-06-10 13:28:00,58.9,44.6,30.14,East,88,6.0,10.0,59,0.00,,,0.00,Wunderground v.1.15,2013-06-10 21:28:00,
2013-06-10 13:33:00,59.2,44.9,30.14,NNE,32,5.0,8.0,59,0.00,,,0.00,Wunderground v.1.15,2013-06-10 21:33:00,
2013-06-10 13:38:00,58.8,43.6,30.14,NE,50,7.0,10.0,57,0.00,,,0.00,Wunderground v.1.15,2013-06-10 21:38:00,
2013-06-10 13:44:00,58.4,43.7,30.14,NE,41,9.0,12.0,58,0.00,,,0.00,Wunderground v.1.15,2013-06-10 21:44:00,
2013-06-10 13:50:00,57.8,43.6,30.14,ENE,78,10.0,10.0,59,0.00,,,0.00,Wunderground v.1.15,2013-06-10 21:50:00,
2013-06-10 13:55:00,57.7,43.5,30.14,ENE,57,9.0,12.0,59,0.00,,,0.00,Wunderground v.1.15,2013-06-10 21:55:00,
2013-06-10 14:01:00,57.2,43.0,30.14,NE,37,9.0,10.0,59,0.00,,,0.00,Wunderground v.1.15,2013-06-10 22:01:00,
2013-06-10 14:07:00,57.1,43.8,30.14,ENE,75,8.0,10.0,61,0.00,,,0.00,Wunderground v.1.15,2013-06-10 22:07:00,
2013-06-10 14:12:00,57.6,43.4,30.14,ENE,75,6.0,10.0,59,0.00,,,0.00,Wunderground v.1.15,2013-06-10 22:12:00,
2013-06-10 14:18:00,57.9,44.1,30.14,NE,39,6.0,10.0,60,0.00,,,0.00,Wunderground v.1.15,2013-06-10 22:18:00,
2013-06-10 14:24:00,58.7,44.0,30.14,ENE,67,5.0,7.0,58,0.00,,,0.00,Wunderground v.1.15,2013-06-10 22:24:00,
2013-06-10 14:29:00,58.5,43.8,30.14,NNE,33,4.0,4.0,58,0.00,,,0.00,Wunderground v.1.15,2013-06-10 22:29:00,
2013-06-10 14:35:00,59.2,44.0,30.13,NNE,22,5.0,7.0,57,0.00,,,0.00,Wunderground v.1.15,2013-06-10 22:35:00,
2013-06-10 14:40:00,59.0,43.8,30.13,East,79,6.0,8.0,57,0.00,,,0.00,Wunderground v.1.15,2013-06-10 22:40:00,
2013-06-10 14:47:00,58.6,42.5,30.13,NNE,32,6.0,11.0,55,0.00,,,0.00,Wunderground v.1.15,2013-06-10 22:47:00,
2013-06-10 14:52:00,58.9,43.7,30.13,ENE,60,6.0,7.0,57,0.00,,,0.00,Wunderground v.1.15,2013-06-10 22:52:00,
2013-06-10 14:58:00,59.1,43.4,30.13,NE,53,5.0,11.0,56,0.00,,,0.00,Wunderground v.1.15,2013-06-10 22:58:00,
2013-06-10 15:04:00,59.4,43.7,30.13,NE,47,5.0,9.0,56,0.00,,,0.00,Wunderground v.1.15,2013-06-10 23:04:00,
2013-06-10 15:09:00,58.7,42.6,30.13,NNE,27,6.0,10.0,55,0.00,,,0.00,Wunderground v.1.15,2013-06-10 23:09:00,
2013-06-10 15:14:00,58.4,42.8,30.13,NNE,19,7.0,10.0,56,0.00,,,0.00,Wunderground v.1.15,2013-06-10 23:14:00,
2013-06-10 15:20:00,58.6,43.9,30.13,NE,34,7.0,7.0,58,0.00,,,0.00,Wunderground v.1.15,2013-06-10 23:20:00,
2013-06-10 15:26:00,58.7,42.6,30.13,NNE,29,6.0,8.0,55,0.00,,,0.00,Wunderground v.1.15,2013-06-10 23:26:00,
2013-06-10 15:32:00,58.2,43.0,30.13,NNE,32,7.0,7.0,57,0.00,,,0.00,Wunderground v.1.15,2013-06-10 23:32:00,
2013-06-10 15:37:00,57.8,42.7,30.13,NNE,32,7.0,8.0,57,0.00,,,0.00,Wunderground v.1.15,2013-06-10 23:37:00,
2013-06-10 15:42:00,57.7,43.0,30.13,NNE,29,7.0,11.0,58,0.00,,,0.00,Wunderground v.1.15,2013-06-10 23:42:00,
2013-06-10 15:47:00,57.2,42.1,30.13,East,91,8.0,13.0,57,0.00,,,0.00,Wunderground v.1.15,2013-06-10 23:47:00,
2013-06-10 15:53:00,56.9,41.8,30.12,NNE,33,9.0,11.0,57,0.00,,,0.00,Wunderground v.1.15,2013-06-10 23:53:00,
2013-06-10 15:58:00,57.0,41.9,30.12,NE,43,9.0,11.0,57,0.00,,,0.00,Wunderground v.1.15,2013-06-10 23:58:00,
2013-06-10 16:04:00,57.4,42.3,30.12,NE,41,8.0,12.0,57,0.00,,,0.00,Wunderground v.1.15,2013-06-11 00:04:00,
2013-06-10 16:10:00,58.0,41.9,30.12,North,351,8.0,8.0,55,0.00,,,0.00,Wunderground v.1.15,2013-06-11 00:10:00,
2013-06-10 16:16:00,58.1,42.0,30.12,ENE,66,8.0,11.0,55,0.00,,,0.00,Wunderground v.1.15,2013-06-11 00:16:00,
2013-06-10 16:21:00,58.3,41.2,30.12,ENE,78,8.0,8.0,53,0.00,,,0.00,Wunderground v.1.15,2013-06-11 00:21:00,
2013-06-10 16:27:00,58.1,40.6,30.12,East,101,9.0,12.0,52,0.00,,,0.00,Wunderground v.1.15,2013-06-11 00:27:00,
2013-06-10 16:33:00,57.9,40.9,30.12,NE,54,9.0,14.0,53,0.00,,,0.00,Wunderground v.1.15,2013-06-11 00:33:00,
2013-06-10 16:39:00,58.0,41.0,30.12,NE,43,9.0,14.0,53,0.00,,,0.00,Wunderground v.1.15,2013-06-11 00:39:00,
2013-06-10 16:45:00,58.2,41.1,30.11,East,93,9.0,11.0,53,0.00,,,0.00,Wunderground v.1.15,2013-06-11 00:45:00,
2013-06-10 16:50:00,58.2,40.6,30.11,NE,49,9.0,13.0,52,0.00,,,0.00,Wunderground v.1.15,2013-06-11 00:50:00,
2013-06-10 16:55:00,58.7,41.6,30.11,NNE,28,8.0,13.0,53,0.00,,,0.00,Wunderground v.1.15,2013-06-11 00:55:00,
2013-06-10 17:01:00,59.2,41.1,30.11,NE,44,6.0,14.0,51,0.00,,,0.00,Wunderground v.1.15,2013-06-11 01:01:00,
2013-06-10 17:07:00,58.9,40.8,30.11,ENE,60,7.0,14.0,51,0.00,,,0.00,Wunderground v.1.15,2013-06-11 01:07:00,
2013-06-10 17:13:00,58.7,40.1,30.11,ENE,68,8.0,8.0,50,0.00,,,0.00,Wunderground v.1.15,2013-06-11 01:13:00,
2013-06-10 17:19:00,58.9,41.3,30.11,NE,39,7.0,8.0,52,0.00,,,0.00,Wunderground v.1.15,2013-06-11 01:19:00,
2013-06-10 17:24:00,59.0,41.4,30.11,NE,49,7.0,10.0,52,0.00,,,0.00,Wunderground v.1.15,2013-06-11 01:24:00,
2013-06-10 17:30:00,58.6,41.0,30.11,NE,49,8.0,14.0,52,0.00,,,0.00,Wunderground v.1.15,2013-06-11 01:30:00,
2013-06-10 17:36:00,58.0,40.5,30.11,NNE,33,10.0,14.0,52,0.00,,,0.00,Wunderground v.1.15,2013-06-11 01:36:00,
2013-06-10 17:42:00,57.8,40.3,30.11,East,89,10.0,14.0,52,0.00,,,0.00,Wunderground v.1.15,2013-06-11 01:42:00,
2013-06-10 17:47:00,57.6,39.1,30.11,ENE,71,10.0,14.0,50,0.00,,,0.00,Wunderground v.1.15,2013-06-11 01:47:00,
2013-06-10 17:53:00,57.5,39.5,30.11,ENE,76,9.0,10.0,51,0.00,,,0.00,Wunderground v.1.15,2013-06-11 01:53:00,
2013-06-10 18:00:00,57.6,39.6,30.11,ENE,73,8.0,8.0,51,0.00,,,0.00,Wunderground v.1.15,2013-06-11 02:00:00,
2013-06-10 18:05:00,57.6,40.1,30.11,NE,38,8.0,9.0,52,0.00,,,0.00,Wunderground v.1.15,2013-06-11 02:05:00,
2013-06-10 18:11:00,57.8,40.3,30.11,ENE,63,6.0,7.0,52,0.00,,,0.00,Wunderground v.1.15,2013-06-11 02:11:00,
2013-06-10 18:17:00,57.6,40.1,30.11,ENE,65,5.0,9.0,52,0.00,,,0.00,Wunderground v.1.15,2013-06-11 02:17:00,
2013-06-10 18:23:00,57.4,39.9,30.10,ENE,77,5.0,8.0,52,0.00,,,0.00,Wunderground v.1.15,2013-06-11 02:23:00,
2013-06-10 18:28:00,57.2,40.2,30.10,ENE,63,7.0,11.0,53,0.00,,,0.00,Wunderground v.1.15,2013-06-11 02:28:00,
2013-06-10 18:34:00,57.5,40.0,30.10,ENE,60,6.0,8.0,52,0.00,,,0.00,Wunderground v.1.15,2013-06-11 02:34:00,
2013-06-10 18:40:00,57.5,40.5,30.10,East,86,6.0,6.0,53,0.00,,,0.00,Wunderground v.1.15,2013-06-11 02:40:00,
2013-06-10 18:46:00,57.4,40.4,30.10,ENE,68,6.0,8.0,53,0.00,,,0.00,Wunderground v.1.15,2013-06-11 02:46:00,
2013-06-10 18:51:00,57.3,40.3,30.10,East,82,5.0,9.0,53,0.00,,,0.00,Wunderground v.1.15,2013-06-11 02:51:00,
2013-06-10 18:57:00,57.2,39.7,30.10,ESE,118,5.0,9.0,52,0.00,,,0.00,Wunderground v.1.15,2013-06-11 02:57:00,
2013-06-10 19:03:00,57.3,40.8,30.10,NE,45,6.0,7.0,54,0.00,,,0.00,Wunderground v.1.15,2013-06-11 03:03:00,
2013-06-10 19:08:00,57.6,40.1,30.10,NE,39,5.0,7.0,52,0.00,,,0.00,Wunderground v.1.15,2013-06-11 03:08:00,
2013-06-10 19:13:00,57.7,41.2,30.10,NE,45,4.0,6.0,54,0.00,,,0.00,Wunderground v.1.15,2013-06-11 03:13:00,
2013-06-10 19:19:00,57.9,40.4,30.09,ENE,76,4.0,4.0,52,0.00,,,0.00,Wunderground v.1.15,2013-06-11 03:19:00,
2013-06-10 19:26:00,58.1,40.6,30.09,ENE,63,4.0,6.0,52,0.00,,,0.00,Wunderground v.1.15,2013-06-11 03:26:00,
2013-06-10 19:32:00,57.9,40.4,30.09,North,354,5.0,8.0,52,0.00,,,0.00,Wunderground v.1.15,2013-06-11 03:32:00,
2013-06-10 19:37:00,57.8,40.3,30.09,NE,37,5.0,8.0,52,0.00,,,0.00,Wunderground v.1.15,2013-06-11 03:37:00,
2013-06-10 19:43:00,57.4,40.9,30.09,ENE,65,5.0,7.0,54,0.00,,,0.00,Wunderground v.1.15,2013-06-11 03:43:00,
2013-06-10 19:47:00,57.5,40.0,30.09,ENE,77,5.0,8.0,52,0.00,,,0.00,Wunderground v.1.15,2013-06-11 03:47:00,
2013-06-10 19:53:00,57.4,39.9,30.09,ENE,65,5.0,5.0,52,0.00,,,0.00,Wunderground v.1.15,2013-06-11 03:53:00,
2013-06-10 19:59:00,57.6,40.1,30.09,ENE,64,4.0,6.0,52,0.00,,,0.00,Wunderground v.1.15,2013-06-11 03:59:00,
2013-06-10 20:01:00,57.5,40.0,30.09,NE,39,4.0,6.0,52,0.00,,,0.00,Wunderground v.1.15,2013-06-11 04:01:00,
2013-06-10 20:02:00,57.6,40.1,30.09,ENE,68,4.0,6.0,52,0.00,,,0.00,Wunderground v.1.15,2013-06-11 04:02:00,
2013-06-10 20:04:00,57.5,40.0,30.09,NNE,28,4.0,6.0,52,0.00,,,0.00,Wunderground v.1.15,2013-06-11 04:04:00,
2013-06-10 20:05:00,57.6,40.1,30.09,ENE,71,4.0,6.0,52,0.00,,,0.00,Wunderground v.1.15,2013-06-11 04:05:00,
2013-06-10 20:08:00,57.6,40.1,30.09,ENE,72,4.0,8.0,52,0.00,,,0.00,Wunderground v.1.15,2013-06-11 04:08:00,
2013-06-10 20:14:00,57.4,39.4,30.09,ENE,65,4.0,5.0,51,0.00,,,0.00,Wunderground v.1.15,2013-06-11 04:14:00,
2013-06-10 20:20:00,57.1,39.1,30.09,NE,49,5.0,5.0,51,0.00,,,0.00,Wunderground v.1.15,2013-06-11 04:20:00,
2013-06-10 20:25:00,57.2,39.7,30.09,ENE,72,5.0,7.0,52,0.00,,,0.00,Wunderground v.1.15,2013-06-11 04:25:00,
2013-06-10 20:31:00,57.2,39.7,30.08,NNE,26,4.0,5.0,52,0.00,,,0.00,Wunderground v.1.15,2013-06-11 04:31:00,
2013-06-10 20:37:00,57.4,39.9,30.08,ENE,68,3.0,5.0,52,0.00,,,0.00,Wunderground v.1.15,2013-06-11 04:37:00,
2013-06-10 20:42:00,57.3,39.8,30.08,ENE,60,3.0,4.0,52,0.00,,,0.00,Wunderground v.1.15,2013-06-11 04:42:00,
2013-06-10 20:48:00,57.2,39.7,30.08,ENE,74,3.0,5.0,52,0.00,,,0.00,Wunderground v.1.15,2013-06-11 04:48:00,
2013-06-10 20:54:00,57.1,39.1,30.08,ENE,60,4.0,6.0,51,0.00,,,0.00,Wunderground v.1.15,2013-06-11 04:54:00,
2013-06-10 21:00:00,57.1,39.1,30.08,ENE,60,4.0,4.0,51,0.00,,,0.00,Wunderground v.1.15,2013-06-11 05:00:00,
2013-06-10 21:06:00,57.0,39.5,30.08,NE,39,4.0,5.0,52,0.00,,,0.00,Wunderground v.1.15,2013-06-11 05:06:00,
2013-06-10 21:11:00,56.7,39.7,30.08,NE,47,3.0,4.0,53,0.00,,,0.00,Wunderground v.1.15,2013-06-11 05:11:00,
2013-06-10 21:16:00,56.4,39.5,30.08,East,91,3.0,6.0,53,0.00,,,0.00,Wunderground v.1.15,2013-06-11 05:16:00,
2013-06-10 21:22:00,56.1,39.7,30.08,NE,51,3.0,5.0,54,0.00,,,0.00,Wunderground v.1.15,2013-06-11 05:22:00,
2013-06-10 21:27:00,55.8,39.4,30.08,East,81,4.0,6.0,54,0.00,,,0.00,Wunderground v.1.15,2013-06-11 05:27:00,
2013-06-10 21:33:00,55.7,39.8,30.08,ESE,105,4.0,4.0,55,0.00,,,0.00,Wunderground v.1.15,2013-06-11 05:33:00,
2013-06-10 21:38:00,55.6,39.7,30.08,ENE,68,4.0,6.0,55,0.00,,,0.00,Wunderground v.1.15,2013-06-11 05:38:00,
2013-06-10 21:43:00,55.3,39.4,30.08,East,79,4.0,4.0,55,0.00,,,0.00,Wunderground v.1.15,2013-06-11 05:43:00,
2013-06-10 21:49:00,55.1,39.2,30.08,ENE,77,4.0,4.0,55,0.00,,,0.00,Wunderground v.1.15,2013-06-11 05:49:00,
2013-06-10 21:55:00,54.9,39.5,30.08,East,92,4.0,5.0,56,0.00,,,0.00,Wunderground v.1.15,2013-06-11 05:55:00,
2013-06-10 22:00:00,54.7,39.3,30.08,East,82,4.0,4.0,56,0.00,,,0.00,Wunderground v.1.15,2013-06-11 06:00:00,
2013-06-10 22:06:00,54.6,39.2,30.08,ENE,65,4.0,5.0,56,0.00,,,0.00,Wunderground v.1.15,2013-06-11 06:06:00,
2013-06-10 22:12:00,54.3,39.4,30.08,ENE,65,2.0,4.0,57,0.00,,,0.00,Wunderground v.1.15,2013-06-11 06:12:00,
2013-06-10 22:18:00,54.0,39.1,30.08,ENE,65,1.0,4.0,57,0.00,,,0.00,Wunderground v.1.15,2013-06-11 06:18:00,
2013-06-10 22:23:00,53.8,39.4,30.08,ENE,65,0.0,4.0,58,0.00,,,0.00,Wunderground v.1.15,2013-06-11 06:23:00,
2013-06-10 22:29:00,53.6,39.6,30.08,ENE,65,0.0,4.0,59,0.00,,,0.00,Wunderground v.1.15,2013-06-11 06:29:00,
2013-06-10 22:35:00,53.3,39.3,30.08,ENE,65,0.0,4.0,59,0.00,,,0.00,Wunderground v.1.15,2013-06-11 06:35:00,
2013-06-10 22:40:00,53.0,39.5,30.08,ENE,65,0.0,4.0,60,0.00,,,0.00,Wunderground v.1.15,2013-06-11 06:40:00,
2013-06-10 22:45:00,52.8,39.3,30.08,ENE,65,0.0,4.0,60,0.00,,,0.00,Wunderground v.1.15,2013-06-11 06:45:00,
2013-06-10 22:51:00,52.8,39.3,30.08,East,79,1.0,4.0,60,0.00,,,0.00,Wunderground v.1.15,2013-06-11 06:51:00,
2013-06-10 22:56:00,52.9,39.4,30.08,East,81,2.0,4.0,60,0.00,,,0.00,Wunderground v.1.15,2013-06-11 06:56:00,
2013-06-10 23:02:00,53.3,39.3,30.08,ESE,107,2.0,4.0,59,0.00,,,0.00,Wunderground v.1.15,2013-06-11 07:02:00,
2013-06-10 23:08:00,53.6,39.6,30.08,ESE,104,2.0,4.0,59,0.00,,,0.00,Wunderground v.1.15,2013-06-11 07:08:00,
2013-06-10 23:14:00,53.9,39.9,30.08,ESE,102,3.0,4.0,59,0.00,,,0.00,Wunderground v.1.15,2013-06-11 07:14:00,
2013-06-10 23:19:00,54.0,40.0,30.08,East,86,3.0,4.0,59,0.00,,,0.00,Wunderground v.1.15,2013-06-11 07:19:00,
2013-06-10 23:25:00,54.1,40.1,30.08,ESE,106,3.0,4.0,59,0.00,,,0.00,Wunderground v.1.15,2013-06-11 07:25:00,
2013-06-10 23:32:00,54.2,40.2,30.08,ESE,114,3.0,4.0,59,0.00,,,0.00,Wunderground v.1.15,2013-06-11 07:32:00,
2013-06-10 23:37:00,54.2,40.2,30.07,ESE,102,3.0,5.0,59,0.00,,,0.00,Wunderground v.1.15,2013-06-11 07:37:00,
2013-06-10 23:43:00,54.2,40.2,30.08,SE,125,4.0,5.0,59,0.00,,,0.00,Wunderground v.1.15,2013-06-11 07:43:00,
2013-06-10 23:49:00,54.2,40.2,30.07,SE,135,4.0,5.0,59,0.00,,,0.00,Wunderground v.1.15,2013-06-11 07:49:00,
2013-06-10 23:54:00,54.1,40.5,30.08,SE,134,4.0,5.0,60,0.00,,,0.00,Wunderground v.1.15,2013-06-11 07:54:00,